Showing default

ENSHI XIDA SHANQUAN, 64962

Orbit data source: Space-Track

ENSHI XIDA SHANQUAN, 64962 is a payload satellite owned by Hangsheng (CN) in SSO that was launched on Tue, 29 Jul 2025 UTC via an SHUANG QUXIAN 1 launch vehicle from the Jiuquan Satellite Launch Center, China (JSC). Payload-class satellites include a variety of spacecraft equipped with specific instruments for various scientific and technological missions. These include communications satellites like Starlink; space stations such as the ISS; scientific satellites like the Hubble; Earth observation satellites from companies like Planet Labs, Umbra, and HawkEye 360; GPS; miniature CubeSats for education and research; and military/defense satellites.

Loading next visibility...
Identifier
64962, 2025-160A
Orbit
SSO
Country
Flag of CNCN / PRC
Related business
Manufacturer
MIAO
Mission
Operational Commercial Imaging
Bus & Motor
Unknown
Mass
~10 kg wet, ~10 kg dry
Launch date (UTC)
2025-07-29 (11 months ago)
Launch vehicle
SHUANG QUXIAN 1
Launch site
Jiuquan Satellite Launch Center, China (JSC)
Object type
Payload
Rocket body
Debris
Shape & HBR
Box + 2 Pan, 0.3 m
Radar Cross Section
0.080 m², Medium (>0.1 m² and < 1m²)

Expand to show TLE details & history
Last TLE update: 10 hours ago

TLE from 10 hours ago
0 ENSHI XIDA SHANQUAN
1 64962U 25160A   26171.49332148  .00034055  00000-0  79557-3 0  9995
2 64962  97.3614 249.4100 0008082 185.0322 175.0846 15.42078233 49928
Epoch: 2026-06-20T11:50Z
TLE epoch observation values (Epoch: 2026-06-20T11:50:22.975Z)
Latitude
0.00002°
Longitude
163.10712°
Altitude
448.59 km
Speed
7.64 km/s
True Right ascension
16h 37m 38s
True Declination
0° 00' 00"
Sunlit
Object was in full shadow at epoch
Visualization orbit readout
Latitude
Unknown
Longitude
Unknown
Altitude
Unknown
Speed
Unknown
Apparent Right ascension
Unknown
Apparent Declination
Unknown
Sunlit
N/A
Visualization observer readout
Local Sidereal Time
08:46:34
Azimuth
Unknown
Elevation
Unknown
Doppler factor
Unknown
Orbital elements
Apogee altitude
442.419 km
Perigee altitude
431.403 km
Semi-major axis
6,815.048 km
Eccentricity
0.00081
Inclination
97.3614°
RAAN
249.41°
Arg. of periapsis
185.0322°
True anomaly
175.09253°
Mean anomaly
175.0846°
Eccentric anomaly
175.08856°
Mean motion
3.8578 °/min
Orbital period
93.32 mins
BSTAR
0.00079557
Loading maneuver chart data...
Computing Atmospheric mass density...
Loading historical data...
Loading historical data...
Loading historical data...
Loading historical data...
Loading historical data...
Loading historical data...
Loading historical data...
Other satellites on launch #160 in the year 2025 (2025-07-29 UTC)

Documentation

Showing up to 5 results
|